Year,Month,Day,Hour,Minute,Value (Times are PST for barometer in hPa)
2008,01,05,00,00,971.72
2008,01,05,00,01,971.73
2008,01,05,00,02,971.79
2008,01,05,00,03,971.79
2008,01,05,00,04,971.76
2008,01,05,00,05,971.76
2008,01,05,00,06,971.76
2008,01,05,00,07,971.71
2008,01,05,00,08,971.67
2008,01,05,00,09,971.71
2008,01,05,00,10,971.67
2008,01,05,00,11,971.76
2008,01,05,00,12,971.72
2008,01,05,00,13,971.70
2008,01,05,00,14,971.83
2008,01,05,00,15,971.87
2008,01,05,00,16,971.93
2008,01,05,00,17,971.94
2008,01,05,00,18,972.00
2008,01,05,00,19,972.03
2008,01,05,00,20,972.03
2008,01,05,00,21,972.05
2008,01,05,00,22,971.96
2008,01,05,00,23,971.97
2008,01,05,00,24,972.03
2008,01,05,00,25,972.06
2008,01,05,00,26,972.10
2008,01,05,00,27,972.10
2008,01,05,00,28,972.13
2008,01,05,00,29,972.11
2008,01,05,00,30,972.16
2008,01,05,00,31,972.23
2008,01,05,00,32,972.28
2008,01,05,00,33,972.32
2008,01,05,00,34,972.26
2008,01,05,00,35,972.20
2008,01,05,00,36,972.23
2008,01,05,00,37,972.23
2008,01,05,00,38,972.20
2008,01,05,00,39,972.23
2008,01,05,00,40,972.27
2008,01,05,00,41,972.22
2008,01,05,00,42,972.37
2008,01,05,00,43,972.40
2008,01,05,00,44,972.38
2008,01,05,00,45,972.47
2008,01,05,00,46,972.44
2008,01,05,00,47,972.44
2008,01,05,00,48,972.44
2008,01,05,00,49,972.45
2008,01,05,00,50,972.54
2008,01,05,00,51,972.54
2008,01,05,00,52,972.57
2008,01,05,00,53,972.58
2008,01,05,00,54,972.67
2008,01,05,00,55,972.67
2008,01,05,00,56,972.71
2008,01,05,00,57,972.71
2008,01,05,00,58,972.76
2008,01,05,00,59,972.94
2008,01,05,01,00,972.90
2008,01,05,01,01,972.85
2008,01,05,01,02,972.97
2008,01,05,01,03,972.88
2008,01,05,01,04,972.89
2008,01,05,01,05,972.98
2008,01,05,01,06,973.00
2008,01,05,01,07,972.94
2008,01,05,01,08,972.99
2008,01,05,01,09,973.06
2008,01,05,01,10,973.15
2008,01,05,01,11,973.15
2008,01,05,01,12,973.18
2008,01,05,01,13,973.18
2008,01,05,01,14,973.15
2008,01,05,01,15,973.18
2008,01,05,01,16,973.15
2008,01,05,01,17,973.18
2008,01,05,01,18,973.26
2008,01,05,01,19,973.31
2008,01,05,01,20,973.26
2008,01,05,01,21,973.32
2008,01,05,01,22,973.32
2008,01,05,01,23,973.35
2008,01,05,01,24,973.35
2008,01,05,01,25,973.38
2008,01,05,01,26,973.43
2008,01,05,01,27,973.52
2008,01,05,01,28,973.52
2008,01,05,01,29,973.56
2008,01,05,01,30,973.62
2008,01,05,01,31,973.65
2008,01,05,01,32,973.63
2008,01,05,01,33,973.69
2008,01,05,01,34,973.68
2008,01,05,01,35,973.63
2008,01,05,01,36,973.72
2008,01,05,01,37,973.72
2008,01,05,01,38,973.79
2008,01,05,01,39,973.79
2008,01,05,01,40,973.82
2008,01,05,01,41,973.80
2008,01,05,01,42,973.86
2008,01,05,01,43,973.89
2008,01,05,01,44,973.88
2008,01,05,01,45,973.83
2008,01,05,01,46,973.92
2008,01,05,01,47,973.86
2008,01,05,01,48,973.89
2008,01,05,01,49,973.93
2008,01,05,01,50,973.93
2008,01,05,01,51,973.93
2008,01,05,01,52,973.99
2008,01,05,01,53,973.97
2008,01,05,01,54,974.06
2008,01,05,01,55,974.06
2008,01,05,01,56,974.10
2008,01,05,01,57,974.10
2008,01,05,01,58,974.10
2008,01,05,01,59,974.13
2008,01,05,02,00,974.13
2008,01,05,02,01,974.14
2008,01,05,02,02,974.20
2008,01,05,02,03,974.24
2008,01,05,02,04,974.37
2008,01,05,02,05,974.33
2008,01,05,02,06,974.33
2008,01,05,02,07,974.30
2008,01,05,02,08,974.34
2008,01,05,02,09,974.46
2008,01,05,02,10,974.37
2008,01,05,02,11,974.38
2008,01,05,02,12,974.47
2008,01,05,02,13,974.45
2008,01,05,02,14,974.60
2008,01,05,02,15,974.60
2008,01,05,02,16,974.64
2008,01,05,02,17,974.67
2008,01,05,02,18,974.77
2008,01,05,02,19,974.77
2008,01,05,02,20,974.81
2008,01,05,02,21,974.84
2008,01,05,02,22,974.87
2008,01,05,02,23,974.87
2008,01,05,02,24,974.92
2008,01,05,02,25,974.98
2008,01,05,02,26,975.02
2008,01,05,02,27,975.14
2008,01,05,02,28,975.14
2008,01,05,02,29,975.14
2008,01,05,02,30,975.18
2008,01,05,02,31,975.19
2008,01,05,02,32,975.28
2008,01,05,02,33,975.29
2008,01,05,02,34,975.36
2008,01,05,02,35,975.48
2008,01,05,02,36,975.49
2008,01,05,02,37,975.59
2008,01,05,02,38,975.63
2008,01,05,02,39,975.69
2008,01,05,02,40,975.72
2008,01,05,02,41,975.72
2008,01,05,02,42,975.69
2008,01,05,02,43,975.65
2008,01,05,02,44,975.65
2008,01,05,02,45,975.69
2008,01,05,02,46,975.66
2008,01,05,02,47,975.75
2008,01,05,02,48,975.82
2008,01,05,02,49,975.89
2008,01,05,02,50,975.92
2008,01,05,02,51,975.91
2008,01,05,02,52,975.87
2008,01,05,02,53,975.93
2008,01,05,02,54,975.99
2008,01,05,02,55,975.99
2008,01,05,02,56,975.96
2008,01,05,02,57,975.99
2008,01,05,02,58,975.99
2008,01,05,02,59,976.03
2008,01,05,03,00,976.06
2008,01,05,03,01,976.05
2008,01,05,03,02,975.99
2008,01,05,03,03,976.04
2008,01,05,03,04,976.09
2008,01,05,03,05,976.12
2008,01,05,03,06,976.06
2008,01,05,03,07,976.03
2008,01,05,03,08,976.03
2008,01,05,03,09,976.06
2008,01,05,03,10,976.08
2008,01,05,03,11,975.99
2008,01,05,03,12,975.96
2008,01,05,03,13,975.96
2008,01,05,03,14,975.99
2008,01,05,03,15,975.99
2008,01,05,03,16,976.00
2008,01,05,03,17,976.14
2008,01,05,03,18,976.19
2008,01,05,03,19,976.17
2008,01,05,03,20,976.26
2008,01,05,03,21,976.30
2008,01,05,03,22,976.31
2008,01,05,03,23,976.40
2008,01,05,03,24,976.47
2008,01,05,03,25,976.50
2008,01,05,03,26,976.50
2008,01,05,03,27,976.57
2008,01,05,03,28,976.60
2008,01,05,03,29,976.60
2008,01,05,03,30,976.60
2008,01,05,03,31,976.58
2008,01,05,03,32,976.67
2008,01,05,03,33,976.63
2008,01,05,03,34,976.60
2008,01,05,03,35,976.66
2008,01,05,03,36,976.53
2008,01,05,03,37,976.57
2008,01,05,03,38,976.57
2008,01,05,03,39,976.56
2008,01,05,03,40,976.50
2008,01,05,03,41,976.47
2008,01,05,03,42,976.49
2008,01,05,03,43,976.43
2008,01,05,03,44,976.41
2008,01,05,03,45,976.47
2008,01,05,03,46,976.47
2008,01,05,03,47,976.50
2008,01,05,03,48,976.54
2008,01,05,03,49,976.63
2008,01,05,03,50,976.64
2008,01,05,03,51,976.77
2008,01,05,03,52,976.80
2008,01,05,03,53,976.84
2008,01,05,03,54,976.88
2008,01,05,03,55,976.96
2008,01,05,03,56,977.09
2008,01,05,03,57,977.19
2008,01,05,03,58,977.28
2008,01,05,03,59,977.28
2008,01,05,04,00,977.23
2008,01,05,04,01,977.14
2008,01,05,04,02,977.08
2008,01,05,04,03,977.08
2008,01,05,04,04,977.04
2008,01,05,04,05,977.01
2008,01,05,04,06,977.05
2008,01,05,04,07,977.11
2008,01,05,04,08,977.15
2008,01,05,04,09,977.25
2008,01,05,04,10,977.42
2008,01,05,04,11,977.49
2008,01,05,04,12,977.62
2008,01,05,04,13,977.65
2008,01,05,04,14,977.64
2008,01,05,04,15,977.84
2008,01,05,04,16,978.00
2008,01,05,04,17,978.13
2008,01,05,04,18,978.18
2008,01,05,04,19,978.06
2008,01,05,04,20,978.02
2008,01,05,04,21,978.05
2008,01,05,04,22,977.95
2008,01,05,04,23,977.84
2008,01,05,04,24,977.72
2008,01,05,04,25,977.67
2008,01,05,04,26,977.61
2008,01,05,04,27,977.55
2008,01,05,04,28,977.61
2008,01,05,04,29,977.48
2008,01,05,04,30,977.51
2008,01,05,04,31,977.45
2008,01,05,04,32,977.42
2008,01,05,04,33,977.55
2008,01,05,04,34,977.54
2008,01,05,04,35,977.48
2008,01,05,04,36,977.55
2008,01,05,04,37,977.66
2008,01,05,04,38,977.72
2008,01,05,04,39,977.76
2008,01,05,04,40,977.86
2008,01,05,04,41,977.92
2008,01,05,04,42,977.99
2008,01,05,04,43,977.98
2008,01,05,04,44,977.89
2008,01,05,04,45,977.86
2008,01,05,04,46,978.02
2008,01,05,04,47,977.99
2008,01,05,04,48,977.99
2008,01,05,04,49,977.98
2008,01,05,04,50,978.12
2008,01,05,04,51,978.17
2008,01,05,04,52,978.26
2008,01,05,04,53,978.30
2008,01,05,04,54,978.36
2008,01,05,04,55,978.40
2008,01,05,04,56,978.40
2008,01,05,04,57,978.43
2008,01,05,04,58,978.46
2008,01,05,04,59,978.40
2008,01,05,05,00,978.36
2008,01,05,05,01,978.46
2008,01,05,05,02,978.46
2008,01,05,05,03,978.51
2008,01,05,05,04,978.60
2008,01,05,05,05,978.57
2008,01,05,05,06,978.55
2008,01,05,05,07,978.70
2008,01,05,05,08,978.73
2008,01,05,05,09,978.77
2008,01,05,05,10,978.68
2008,01,05,05,11,978.75
2008,01,05,05,12,978.95
2008,01,05,05,13,979.02
2008,01,05,05,14,979.15
2008,01,05,05,15,979.25
2008,01,05,05,16,979.38
2008,01,05,05,17,979.39
2008,01,05,05,18,979.46
2008,01,05,05,19,979.52
2008,01,05,05,20,979.59
2008,01,05,05,21,979.65
2008,01,05,05,22,979.60
2008,01,05,05,23,979.55
2008,01,05,05,24,979.50
2008,01,05,05,25,979.46
2008,01,05,05,26,979.55
2008,01,05,05,27,979.51
2008,01,05,05,28,979.51
2008,01,05,05,29,979.55
2008,01,05,05,30,979.55
2008,01,05,05,31,979.58
2008,01,05,05,32,979.55
2008,01,05,05,33,979.58
2008,01,05,05,34,979.61
2008,01,05,05,35,979.65
2008,01,05,05,36,979.68
2008,01,05,05,37,979.68
2008,01,05,05,38,979.65
2008,01,05,05,39,979.61
2008,01,05,05,40,979.58
2008,01,05,05,41,979.55
2008,01,05,05,42,979.55
2008,01,05,05,43,979.55
2008,01,05,05,44,979.51
2008,01,05,05,45,979.55
2008,01,05,05,46,979.59
2008,01,05,05,47,979.77
2008,01,05,05,48,979.92
2008,01,05,05,49,979.89
2008,01,05,05,50,979.88
2008,01,05,05,51,979.78
2008,01,05,05,52,979.78
2008,01,05,05,53,979.81
2008,01,05,05,54,979.75
2008,01,05,05,55,979.75
2008,01,05,05,56,979.71
2008,01,05,05,57,979.64
2008,01,05,05,58,979.55
2008,01,05,05,59,979.61
2008,01,05,06,00,979.61
2008,01,05,06,01,979.62
2008,01,05,06,02,979.72
2008,01,05,06,03,979.69
2008,01,05,06,04,979.75
2008,01,05,06,05,979.78
2008,01,05,06,06,979.82
2008,01,05,06,07,979.77
2008,01,05,06,08,979.66
2008,01,05,06,09,979.75
2008,01,05,06,10,979.76
2008,01,05,06,11,979.83
2008,01,05,06,12,980.09
2008,01,05,06,13,980.34
2008,01,05,06,14,980.43
2008,01,05,06,15,980.46
2008,01,05,06,16,980.50
2008,01,05,06,17,980.53
2008,01,05,06,18,980.53
2008,01,05,06,19,980.54
2008,01,05,06,20,980.65
2008,01,05,06,21,980.77
2008,01,05,06,22,980.72
2008,01,05,06,23,980.56
2008,01,05,06,24,980.61
2008,01,05,06,25,980.71
2008,01,05,06,26,980.81
2008,01,05,06,27,980.90
2008,01,05,06,28,980.87
2008,01,05,06,29,980.88
2008,01,05,06,30,980.95
2008,01,05,06,31,981.07
2008,01,05,06,32,981.05
2008,01,05,06,33,981.17
2008,01,05,06,34,981.21
2008,01,05,06,35,981.24
2008,01,05,06,36,981.24
2008,01,05,06,37,981.21
2008,01,05,06,38,981.17
2008,01,05,06,39,981.20
2008,01,05,06,40,981.13
2008,01,05,06,41,981.04
2008,01,05,06,42,981.04
2008,01,05,06,43,981.06
2008,01,05,06,44,981.00
2008,01,05,06,45,980.97
2008,01,05,06,46,980.99
2008,01,05,06,47,980.92
2008,01,05,06,48,981.08
2008,01,05,06,49,981.21
2008,01,05,06,50,981.25
2008,01,05,06,51,981.31
2008,01,05,06,52,981.38
2008,01,05,06,53,981.41
2008,01,05,06,54,981.41
2008,01,05,06,55,981.42
2008,01,05,06,56,981.48
2008,01,05,06,57,981.55
2008,01,05,06,58,981.61
2008,01,05,06,59,981.66
2008,01,05,07,00,981.71
2008,01,05,07,01,981.72
2008,01,05,07,02,981.88
2008,01,05,07,03,981.78
2008,01,05,07,04,981.82
2008,01,05,07,05,981.82
2008,01,05,07,06,981.88
2008,01,05,07,07,981.79
2008,01,05,07,08,981.91
2008,01,05,07,09,981.78
2008,01,05,07,10,981.84
2008,01,05,07,11,981.74
2008,01,05,07,12,981.64
2008,01,05,07,13,981.51
2008,01,05,07,14,981.49
2008,01,05,07,15,981.61
2008,01,05,07,16,981.62
2008,01,05,07,17,981.72
2008,01,05,07,18,981.79
2008,01,05,07,19,981.92
2008,01,05,07,20,981.93
2008,01,05,07,21,981.99
2008,01,05,07,22,982.05
2008,01,05,07,23,982.05
2008,01,05,07,24,982.05
2008,01,05,07,25,982.09
2008,01,05,07,26,982.09
2008,01,05,07,27,982.09
2008,01,05,07,28,982.11
2008,01,05,07,29,982.02
2008,01,05,07,30,982.02
2008,01,05,07,31,982.06
2008,01,05,07,32,982.15
2008,01,05,07,33,982.22
2008,01,05,07,34,982.26
2008,01,05,07,35,982.23
2008,01,05,07,36,982.29
2008,01,05,07,37,982.29
2008,01,05,07,38,982.26
2008,01,05,07,39,982.29
2008,01,05,07,40,982.30
2008,01,05,07,41,982.39
2008,01,05,07,42,982.38
2008,01,05,07,43,982.27
2008,01,05,07,44,982.32
2008,01,05,07,45,982.39
2008,01,05,07,46,982.36
2008,01,05,07,47,982.29
2008,01,05,07,48,982.26
2008,01,05,07,49,982.31
2008,01,05,07,50,982.21
2008,01,05,07,51,982.16
2008,01,05,07,52,982.26
2008,01,05,07,53,982.26
2008,01,05,07,54,982.30
2008,01,05,07,55,982.49
2008,01,05,07,56,982.50
2008,01,05,07,57,982.60
2008,01,05,07,58,982.70
2008,01,05,07,59,982.73
2008,01,05,08,00,982.73
2008,01,05,08,01,982.73
2008,01,05,08,02,982.73
2008,01,05,08,03,982.70
2008,01,05,08,04,982.66
2008,01,05,08,05,982.65
2008,01,05,08,06,982.59
2008,01,05,08,07,982.55
2008,01,05,08,08,982.47
2008,01,05,08,09,982.64
2008,01,05,08,10,982.70
2008,01,05,08,11,982.74
2008,01,05,08,12,982.84
2008,01,05,08,13,983.01
2008,01,05,08,14,983.10
2008,01,05,08,15,983.15
2008,01,05,08,16,983.20
2008,01,05,08,17,983.23
2008,01,05,08,18,983.14
2008,01,05,08,19,983.16
2008,01,05,08,20,983.07
2008,01,05,08,21,983.04
2008,01,05,08,22,983.09
2008,01,05,08,23,983.04
2008,01,05,08,24,983.04
2008,01,05,08,25,983.04
2008,01,05,08,26,983.08
2008,01,05,08,27,983.20
2008,01,05,08,28,983.24
2008,01,05,08,29,983.27
2008,01,05,08,30,983.25
2008,01,05,08,31,983.31
2008,01,05,08,32,983.27
2008,01,05,08,33,983.31
2008,01,05,08,34,983.31
2008,01,05,08,35,983.32
2008,01,05,08,36,983.45
2008,01,05,08,37,983.51
2008,01,05,08,38,983.58
2008,01,05,08,39,983.62
2008,01,05,08,40,983.68
2008,01,05,08,41,983.75
2008,01,05,08,42,983.71
2008,01,05,08,43,983.74
2008,01,05,08,44,983.60
2008,01,05,08,45,983.51
2008,01,05,08,46,983.54
2008,01,05,08,47,983.52
2008,01,05,08,48,983.64
2008,01,05,08,49,983.71
2008,01,05,08,50,983.71
2008,01,05,08,51,983.78
2008,01,05,08,52,983.81
2008,01,05,08,53,983.82
2008,01,05,08,54,983.92
2008,01,05,08,55,983.93
2008,01,05,08,56,984.02
2008,01,05,08,57,984.05
2008,01,05,08,58,984.12
2008,01,05,08,59,984.13
2008,01,05,09,00,984.19
2008,01,05,09,01,984.25
2008,01,05,09,02,984.22
2008,01,05,09,03,984.20
2008,01,05,09,04,984.32
2008,01,05,09,05,984.36
2008,01,05,09,06,984.36
2008,01,05,09,07,984.30
2008,01,05,09,08,984.36
2008,01,05,09,09,984.32
2008,01,05,09,10,984.33
2008,01,05,09,11,984.39
2008,01,05,09,12,984.42
2008,01,05,09,13,984.47
2008,01,05,09,14,984.56
2008,01,05,09,15,984.56
2008,01,05,09,16,984.53
2008,01,05,09,17,984.53
2008,01,05,09,18,984.50
2008,01,05,09,19,984.56
2008,01,05,09,20,984.50
2008,01,05,09,21,984.55
2008,01,05,09,22,984.49
2008,01,05,09,23,984.53
2008,01,05,09,24,984.49
2008,01,05,09,25,984.49
2008,01,05,09,26,984.57
2008,01,05,09,27,984.63
2008,01,05,09,28,984.60
2008,01,05,09,29,984.73
2008,01,05,09,30,984.76
2008,01,05,09,31,984.72
2008,01,05,09,32,984.60
2008,01,05,09,33,984.69
2008,01,05,09,34,984.74
2008,01,05,09,35,984.83
2008,01,05,09,36,984.83
2008,01,05,09,37,984.87
2008,01,05,09,38,984.98
2008,01,05,09,39,985.02
2008,01,05,09,40,984.97
2008,01,05,09,41,985.00
2008,01,05,09,42,985.00
2008,01,05,09,43,984.97
2008,01,05,09,44,984.97
2008,01,05,09,45,985.00
2008,01,05,09,46,984.98
2008,01,05,09,47,985.03
2008,01,05,09,48,985.07
2008,01,05,09,49,985.08
2008,01,05,09,50,985.13
2008,01,05,09,51,985.18
2008,01,05,09,52,985.25
2008,01,05,09,53,985.37
2008,01,05,09,54,985.37
2008,01,05,09,55,985.34
2008,01,05,09,56,985.34
2008,01,05,09,57,985.34
2008,01,05,09,58,985.31
2008,01,05,09,59,985.44
2008,01,05,10,00,985.42
2008,01,05,10,01,985.61
2008,01,05,10,02,985.68
2008,01,05,10,03,985.68
2008,01,05,10,04,985.61
2008,01,05,10,05,985.68
2008,01,05,10,06,985.69
2008,01,05,10,07,985.77
2008,01,05,10,08,985.64
2008,01,05,10,09,985.54
2008,01,05,10,10,985.57
2008,01,05,10,11,985.71
2008,01,05,10,12,985.71
2008,01,05,10,13,985.61
2008,01,05,10,14,985.64
2008,01,05,10,15,985.68
2008,01,05,10,16,985.74
2008,01,05,10,17,985.74
2008,01,05,10,18,985.71
2008,01,05,10,19,985.71
2008,01,05,10,20,985.80
2008,01,05,10,21,985.74
2008,01,05,10,22,985.85
2008,01,05,10,23,985.91
2008,01,05,10,24,985.91
2008,01,05,10,25,985.95
2008,01,05,10,26,985.98
2008,01,05,10,27,985.98
2008,01,05,10,28,986.02
2008,01,05,10,29,986.12
2008,01,05,10,30,986.12
2008,01,05,10,31,986.18
2008,01,05,10,32,986.22
2008,01,05,10,33,986.02
2008,01,05,10,34,986.02
2008,01,05,10,35,985.95
2008,01,05,10,36,985.91
2008,01,05,10,37,985.98
2008,01,05,10,38,986.05
2008,01,05,10,39,986.18
2008,01,05,10,40,986.22
2008,01,05,10,41,986.25
2008,01,05,10,42,986.29
2008,01,05,10,43,986.32
2008,01,05,10,44,986.32
2008,01,05,10,45,986.39
2008,01,05,10,46,986.42
2008,01,05,10,47,986.46
2008,01,05,10,48,986.49
2008,01,05,10,49,986.35
2008,01,05,10,50,986.29
2008,01,05,10,51,986.29
2008,01,05,10,52,986.29
2008,01,05,10,53,986.29
2008,01,05,10,54,986.32
2008,01,05,10,55,986.35
2008,01,05,10,56,986.39
2008,01,05,10,57,986.46
2008,01,05,10,58,986.42
2008,01,05,10,59,986.42
2008,01,05,11,00,986.46
2008,01,05,11,01,986.52
2008,01,05,11,02,986.59
2008,01,05,11,03,986.59
2008,01,05,11,04,986.56
2008,01,05,11,05,986.62
2008,01,05,11,06,986.62
2008,01,05,11,07,986.69
2008,01,05,11,08,986.73
2008,01,05,11,09,986.73
2008,01,05,11,10,986.73
2008,01,05,11,11,986.76
2008,01,05,11,12,986.70
2008,01,05,11,13,986.83
2008,01,05,11,14,986.90
2008,01,05,11,15,986.93
2008,01,05,11,16,986.90
2008,01,05,11,17,987.00
2008,01,05,11,18,987.03
2008,01,05,11,19,987.00
2008,01,05,11,20,987.03
2008,01,05,11,21,987.06
2008,01,05,11,22,987.06
2008,01,05,11,23,987.06
2008,01,05,11,24,987.10
2008,01,05,11,25,987.10
2008,01,05,11,26,987.17
2008,01,05,11,27,987.06
2008,01,05,11,28,987.10
2008,01,05,11,29,987.06
2008,01,05,11,30,987.10
2008,01,05,11,31,987.03
2008,01,05,11,32,987.17
2008,01,05,11,33,987.13
2008,01,05,11,34,987.17
2008,01,05,11,35,987.20
2008,01,05,11,36,987.27
2008,01,05,11,37,987.27
2008,01,05,11,38,987.34
2008,01,05,11,39,987.27
2008,01,05,11,40,987.30
2008,01,05,11,41,987.27
2008,01,05,11,42,987.30
2008,01,05,11,43,987.34
2008,01,05,11,44,987.34
2008,01,05,11,45,987.40
2008,01,05,11,46,987.40
2008,01,05,11,47,987.44
2008,01,05,11,48,987.40
2008,01,05,11,49,987.44
2008,01,05,11,50,987.40
2008,01,05,11,51,987.40
2008,01,05,11,52,987.44
2008,01,05,11,53,987.44
2008,01,05,11,54,987.44
2008,01,05,11,55,987.51
2008,01,05,11,56,987.54
2008,01,05,11,57,987.57
2008,01,05,11,58,987.54
2008,01,05,11,59,987.57
2008,01,05,12,00,987.64
2008,01,05,12,01,987.64
2008,01,05,12,02,987.64
2008,01,05,12,03,987.67
2008,01,05,12,04,987.71
2008,01,05,12,05,987.71
2008,01,05,12,06,987.71
2008,01,05,12,07,987.74
2008,01,05,12,08,987.78
2008,01,05,12,09,987.74
2008,01,05,12,10,987.74
2008,01,05,12,11,987.74
2008,01,05,12,12,987.74
2008,01,05,12,13,987.78
2008,01,05,12,14,987.84
2008,01,05,12,15,987.84
2008,01,05,12,16,987.88
2008,01,05,12,17,987.84
2008,01,05,12,18,987.81
2008,01,05,12,19,987.88
2008,01,05,12,20,987.91
2008,01,05,12,21,987.95
2008,01,05,12,22,987.91
2008,01,05,12,23,987.88
2008,01,05,12,24,987.84
2008,01,05,12,25,987.84
2008,01,05,12,26,987.84
2008,01,05,12,27,987.88
2008,01,05,12,28,987.95
2008,01,05,12,29,987.91
2008,01,05,12,30,987.88
2008,01,05,12,31,987.95
2008,01,05,12,32,987.98
2008,01,05,12,33,987.95
2008,01,05,12,34,987.91
2008,01,05,12,35,987.91
2008,01,05,12,36,987.98
2008,01,05,12,37,987.98
2008,01,05,12,38,987.98
2008,01,05,12,39,987.91
2008,01,05,12,40,987.95
2008,01,05,12,41,987.95
2008,01,05,12,42,987.91
2008,01,05,12,43,987.91
2008,01,05,12,44,987.98
2008,01,05,12,45,987.95
2008,01,05,12,46,987.98
2008,01,05,12,47,988.01
2008,01,05,12,48,988.08
2008,01,05,12,49,988.05
2008,01,05,12,50,988.08
2008,01,05,12,51,988.11
2008,01,05,12,52,988.15
2008,01,05,12,53,988.15
2008,01,05,12,54,988.15
2008,01,05,12,55,988.18
2008,01,05,12,56,988.15
2008,01,05,12,57,988.25
2008,01,05,12,58,988.22
2008,01,05,12,59,988.15
2008,01,05,13,00,988.25
2008,01,05,13,01,988.22
2008,01,05,13,02,988.18
2008,01,05,13,03,988.11
2008,01,05,13,04,988.11
2008,01,05,13,05,988.15
2008,01,05,13,06,988.18
2008,01,05,13,07,988.18
2008,01,05,13,08,988.18
2008,01,05,13,09,988.22
2008,01,05,13,10,988.15
2008,01,05,13,11,988.22
2008,01,05,13,12,988.22
2008,01,05,13,13,988.18
2008,01,05,13,14,988.15
2008,01,05,13,15,988.11
2008,01,05,13,16,988.11
2008,01,05,13,17,988.11
2008,01,05,13,18,988.08
2008,01,05,13,19,988.15
2008,01,05,13,20,988.22
2008,01,05,13,21,988.22
2008,01,05,13,22,988.18
2008,01,05,13,23,988.22
2008,01,05,13,24,988.25
2008,01,05,13,25,988.28
2008,01,05,13,26,988.32
2008,01,05,13,27,988.35
2008,01,05,13,28,988.42
2008,01,05,13,29,988.45
2008,01,05,13,30,988.45
2008,01,05,13,31,988.42
2008,01,05,13,32,988.45
2008,01,05,13,33,988.45
2008,01,05,13,34,988.52
2008,01,05,13,35,988.49
2008,01,05,13,36,988.49
2008,01,05,13,37,988.42
2008,01,05,13,38,988.45
2008,01,05,13,39,988.42
2008,01,05,13,40,988.52
2008,01,05,13,41,988.52
2008,01,05,13,42,988.59
2008,01,05,13,43,988.59
2008,01,05,13,44,988.66
2008,01,05,13,45,988.66
2008,01,05,13,46,988.66
2008,01,05,13,47,988.69
2008,01,05,13,48,988.69
2008,01,05,13,49,988.72
2008,01,05,13,50,988.69
2008,01,05,13,51,988.76
2008,01,05,13,52,988.76
2008,01,05,13,53,988.72
2008,01,05,13,54,988.72
2008,01,05,13,55,988.76
2008,01,05,13,56,988.69
2008,01,05,13,57,988.76
2008,01,05,13,58,988.83
2008,01,05,13,59,988.83
2008,01,05,14,00,988.96
2008,01,05,14,01,989.00
2008,01,05,14,02,988.96
2008,01,05,14,03,988.89
2008,01,05,14,04,989.00
2008,01,05,14,05,989.03
2008,01,05,14,06,989.03
2008,01,05,14,07,988.96
2008,01,05,14,08,988.86
2008,01,05,14,09,988.93
2008,01,05,14,10,988.93
2008,01,05,14,11,988.96
2008,01,05,14,12,989.00
2008,01,05,14,13,988.96
2008,01,05,14,14,989.03
2008,01,05,14,15,988.96
2008,01,05,14,16,989.00
2008,01,05,14,17,988.93
2008,01,05,14,18,988.89
2008,01,05,14,19,988.89
2008,01,05,14,20,988.93
2008,01,05,14,21,988.93
2008,01,05,14,22,988.93
2008,01,05,14,23,988.96
2008,01,05,14,24,988.96
2008,01,05,14,25,988.96
2008,01,05,14,26,989.00
2008,01,05,14,27,989.03
2008,01,05,14,28,989.03
2008,01,05,14,29,989.10
2008,01,05,14,30,989.10
2008,01,05,14,31,989.13
2008,01,05,14,32,989.10
2008,01,05,14,33,989.10
2008,01,05,14,34,989.10
2008,01,05,14,35,989.06
2008,01,05,14,36,989.13
2008,01,05,14,37,989.10
2008,01,05,14,38,989.10
2008,01,05,14,39,989.10
2008,01,05,14,40,989.10
2008,01,05,14,41,989.03
2008,01,05,14,42,989.00
2008,01,05,14,43,989.00
2008,01,05,14,44,989.06
2008,01,05,14,45,989.06
2008,01,05,14,46,989.03
2008,01,05,14,47,989.06
2008,01,05,14,48,989.10
2008,01,05,14,49,989.16
2008,01,05,14,50,989.20
2008,01,05,14,51,989.20
2008,01,05,14,52,989.23
2008,01,05,14,53,989.27
2008,01,05,14,54,989.30
2008,01,05,14,55,989.40
2008,01,05,14,56,989.40
2008,01,05,14,57,989.40
2008,01,05,14,58,989.44
2008,01,05,14,59,989.47
2008,01,05,15,00,989.40
2008,01,05,15,01,989.44
2008,01,05,15,02,989.44
2008,01,05,15,03,989.37
2008,01,05,15,04,989.33
2008,01,05,15,05,989.40
2008,01,05,15,06,989.47
2008,01,05,15,07,989.50
2008,01,05,15,08,989.50
2008,01,05,15,09,989.57
2008,01,05,15,10,989.50
2008,01,05,15,11,989.50
2008,01,05,15,12,989.54
2008,01,05,15,13,989.57
2008,01,05,15,14,989.57
2008,01,05,15,15,989.54
2008,01,05,15,16,989.54
2008,01,05,15,17,989.54
2008,01,05,15,18,989.60
2008,01,05,15,19,989.60
2008,01,05,15,20,989.64
2008,01,05,15,21,989.64
2008,01,05,15,22,989.67
2008,01,05,15,23,989.64
2008,01,05,15,24,989.57
2008,01,05,15,25,989.60
2008,01,05,15,26,989.67
2008,01,05,15,27,989.67
2008,01,05,15,28,989.64
2008,01,05,15,29,989.64
2008,01,05,15,30,989.57
2008,01,05,15,31,989.57
2008,01,05,15,32,989.54
2008,01,05,15,33,989.54
2008,01,05,15,34,989.54
2008,01,05,15,35,989.57
2008,01,05,15,36,989.57
2008,01,05,15,37,989.60
2008,01,05,15,38,989.74
2008,01,05,15,39,989.74
2008,01,05,15,40,989.71
2008,01,05,15,41,989.67
2008,01,05,15,42,989.64
2008,01,05,15,43,989.64
2008,01,05,15,44,989.71
2008,01,05,15,45,989.77
2008,01,05,15,46,989.67
2008,01,05,15,47,989.67
2008,01,05,15,48,989.74
2008,01,05,15,49,989.77
2008,01,05,15,50,989.84
2008,01,05,15,51,989.88
2008,01,05,15,52,989.94
2008,01,05,15,53,989.94
2008,01,05,15,54,989.88
2008,01,05,15,55,989.98
2008,01,05,15,56,989.94
2008,01,05,15,57,989.98
2008,01,05,15,58,989.98
2008,01,05,15,59,989.91
2008,01,05,16,00,989.98
2008,01,05,16,01,990.01
2008,01,05,16,02,989.98
2008,01,05,16,03,990.08
2008,01,05,16,04,990.04
2008,01,05,16,05,990.01
2008,01,05,16,06,990.08
2008,01,05,16,07,990.08
2008,01,05,16,08,990.15
2008,01,05,16,09,990.15
2008,01,05,16,10,990.15
2008,01,05,16,11,990.08
2008,01,05,16,12,990.15
2008,01,05,16,13,990.21
2008,01,05,16,14,990.25
2008,01,05,16,15,990.21
2008,01,05,16,16,990.18
2008,01,05,16,17,990.25
2008,01,05,16,18,990.35
2008,01,05,16,19,990.35
2008,01,05,16,20,990.35
2008,01,05,16,21,990.42
2008,01,05,16,22,990.45
2008,01,05,16,23,990.45
2008,01,05,16,24,990.49
2008,01,05,16,25,990.49
2008,01,05,16,26,990.45
2008,01,05,16,27,990.42
2008,01,05,16,28,990.59
2008,01,05,16,29,990.55
2008,01,05,16,30,990.55
2008,01,05,16,31,990.59
2008,01,05,16,32,990.55
2008,01,05,16,33,990.52
2008,01,05,16,34,990.55
2008,01,05,16,35,990.52
2008,01,05,16,36,990.52